EN

Hourly Weather Altyariq

Today, 18 January, Monday

Time Temperature Precipitation Wind Pressure Humidity
00:00 +4°C° 0 mm 0 mps 717 mmHg 48%
01:00 +4°C° 0 mm 0 mps 717 mmHg 48%
02:00 +4°C° 0 mm 1 mps 717 mmHg 48%
03:00 +3°C° 0 mm 0 mps 717 mmHg 47%
04:00 +3°C° 0 mm 0 mps 717 mmHg 47%
05:00 +3°C° 0 mm 0 mps 717 mmHg 47%
06:00 +3°C° 0 mm 0 mps 717 mmHg 47%
07:00 +3°C° 0 mm 0 mps 718 mmHg 48%
08:00 +3°C° 0 mm 0 mps 718 mmHg 49%
09:00 +4°C° 0 mm 0 mps 718 mmHg 46%
10:00 +6°C° 0 mm 0 mps 719 mmHg 42%
11:00 +8°C° 0 mm 0 mps 718 mmHg 39%
12:00 +8°C° 0 mm 0 mps 718 mmHg 38%
13:00 +10°C° 0 mm 1 mps 718 mmHg 37%
14:00 +11°C° 0 mm 1 mps 718 mmHg 37%
15:00 +10°C° 0 mm 1 mps 718 mmHg 40%
16:00 +9°C° 0 mm 1 mps 718 mmHg 44%
17:00 +7°C° 0 mm 1 mps 719 mmHg 48%
18:00 +7°C° 0 mm 1 mps 719 mmHg 50%
19:00 +6°C° 0 mm 1 mps 720 mmHg 52%
20:00 +6°C° 0 mm 1 mps 720 mmHg 54%
21:00 +5°C° 0 mm 0 mps 720 mmHg 54%
22:00 +5°C° 0 mm 0 mps 720 mmHg 54%
23:00 +5°C° 0 mm 0 mps 721 mmHg 54%

Tomorrow, 19 January, Tuesday

Time Temperature Precipitation Wind Pressure Humidity
00:00 +5°C° 0 mm 0 mps 721 mmHg 52%
01:00 +6°C° 0 mm 1 mps 721 mmHg 51%
02:00 +6°C° 0 mm 1 mps 721 mmHg 49%
03:00 +6°C° 0 mm 1 mps 721 mmHg 50%
04:00 +5°C° 0 mm 1 mps 721 mmHg 52%
05:00 +5°C° 0 mm 1 mps 721 mmHg 53%
06:00 +5°C° 0 mm 1 mps 721 mmHg 52%
07:00 +5°C° 0 mm 1 mps 722 mmHg 50%
08:00 +5°C° 0 mm 0 mps 722 mmHg 49%
09:00 +7°C° 0 mm 1 mps 722 mmHg 46%
10:00 +8°C° 0 mm 1 mps 722 mmHg 44%
11:00 +9°C° 0 mm 1 mps 722 mmHg 42%
12:00 +10°C° 0 mm 1 mps 722 mmHg 41%
13:00 +11°C° 0 mm 1 mps 722 mmHg 40%
14:00 +11°C° 0 mm 1 mps 722 mmHg 40%
15:00 +10°C° 0 mm 1 mps 722 mmHg 43%
16:00 +8°C° 0 mm 0 mps 722 mmHg 46%
17:00 +7°C° 0 mm 0 mps 722 mmHg 49%
18:00 +7°C° 0 mm 0 mps 723 mmHg 50%
19:00 +7°C° 0 mm 0 mps 723 mmHg 51%
20:00 +6°C° 0 mm 0 mps 723 mmHg 52%
21:00 +7°C° 0 mm 1 mps 724 mmHg 51%
22:00 +7°C° 0 mm 1 mps 724 mmHg 50%
23:00 +7°C° 0 mm 1 mps 724 mmHg 49%

Day after tomorrow, 20 January, Wednesday

Time Temperature Precipitation Wind Pressure Humidity
00:00 +7°C° 0 mm 2 mps 725 mmHg 49%
01:00 +7°C° 0 mm 2 mps 725 mmHg 48%
02:00 +7°C° 0 mm 3 mps 726 mmHg 48%
03:00 +5°C° 0 mm 3 mps 726 mmHg 53%
04:00 +6°C° 0 mm 2 mps 726 mmHg 58%
05:00 +5°C° 0 mm 2 mps 727 mmHg 63%
06:00 +4°C° 0 mm 2 mps 727 mmHg 68%
07:00 +5°C° 0 mm 1 mps 728 mmHg 72%
08:00 +3°C° 0 mm 0 mps 728 mmHg 77%
09:00 +6°C° 0 mm 1 mps 728 mmHg 72%
10:00 +7°C° 0 mm 1 mps 728 mmHg 67%
11:00 +9°C° 0 mm 1 mps 728 mmHg 62%
12:00 +10°C° 0 mm 1 mps 727 mmHg 60%
13:00 +11°C° 0 mm 1 mps 727 mmHg 58%
14:00 +11°C° 0 mm 1 mps 726 mmHg 56%
15:00 +11°C° 0 mm 1 mps 726 mmHg 59%
16:00 +10°C° 0 mm 1 mps 726 mmHg 63%
17:00 +9°C° 0 mm 1 mps 726 mmHg 66%
18:00 +9°C° 0 mm 1 mps 726 mmHg 68%
19:00 +8°C° 0 mm 1 mps 726 mmHg 70%
20:00 +7°C° 0 mm 1 mps 726 mmHg 71%
21:00 +6°C° 0 mm 0 mps 726 mmHg 72%
22:00 +6°C° 0 mm 0 mps 726 mmHg 72%
23:00 +5°C° 0 mm 0 mps 726 mmHg 72%

21 January, Thursday

Time Temperature Precipitation Wind Pressure Humidity
00:00 +5°C° 0 mm 0 mps 725 mmHg 74%
01:00 +4°C° 0 mm 0 mps 725 mmHg 75%
02:00 +4°C° 0 mm 0 mps 725 mmHg 77%
03:00 +5°C° 0 mm 1 mps 724 mmHg 78%
04:00 +4°C° 0 mm 1 mps 723 mmHg 79%
05:00 +4°C° 0 mm 1 mps 723 mmHg 80%
06:00 +4°C° 0 mm 1 mps 722 mmHg 79%
07:00 +4°C° 0 mm 1 mps 722 mmHg 79%
08:00 +3°C° 0 mm 1 mps 722 mmHg 78%
09:00 +5°C° 0 mm 1 mps 721 mmHg 70%
10:00 +7°C° 0 mm 1 mps 720 mmHg 62%
11:00 +8°C° 0 mm 1 mps 719 mmHg 54%
12:00 +9°C° 0 mm 1 mps 718 mmHg 49%
13:00 +10°C° 0 mm 1 mps 717 mmHg 44%
14:00 +10°C° 0 mm 0 mps 716 mmHg 39%
15:00 +10°C° 0 mm 1 mps 716 mmHg 41%
16:00 +10°C° 0 mm 1 mps 716 mmHg 42%
17:00 +9°C° 0 mm 1 mps 715 mmHg 44%
18:00 +8°C° 0 mm 1 mps 715 mmHg 45%
19:00 +8°C° 0 mm 1 mps 715 mmHg 47%
20:00 +7°C° 0 mm 1 mps 715 mmHg 48%
21:00 +7°C° 0 mm 1 mps 715 mmHg 49%
22:00 +7°C° 0 mm 1 mps 715 mmHg 49%
23:00 +6°C° 0 mm 2 mps 715 mmHg 49%

22 January, Friday

Time Temperature Precipitation Wind Pressure Humidity
00:00 +6°C° 0 mm 2 mps 715 mmHg 50%
01:00 +5°C° 0 mm 2 mps 715 mmHg 51%
02:00 +5°C° 0 mm 2 mps 715 mmHg 51%
03:00 +5°C° 0 mm 2 mps 715 mmHg 52%
04:00 +5°C° 0 mm 2 mps 715 mmHg 52%
05:00 +5°C° 0 mm 2 mps 715 mmHg 53%
06:00 +5°C° 0.5 mm 2 mps 717 mmHg 62%
07:00 +4°C° 0.5 mm 2 mps 718 mmHg 71%
08:00 +3°C° 0.5 mm 3 mps 719 mmHg 81%
09:00 +2°C° 1 mm 5 mps 720 mmHg 75%
10:00 +1°C° 1 mm 8 mps 721 mmHg 69%
11:00 +1°C° 1 mm 11 mps 723 mmHg 63%
12:00 0°C° 0 mm 12 mps 723 mmHg 58%
13:00 0°C° 0 mm 12 mps 723 mmHg 53%
14:00 -1°C° 0 mm 12 mps 724 mmHg 48%
15:00 -2°C° 0 mm 12 mps 725 mmHg 48%
16:00 -2°C° 0 mm 12 mps 726 mmHg 48%
17:00 -3°C° 0 mm 11 mps 727 mmHg 48%
18:00 -3°C° 0 mm 10 mps 728 mmHg 48%
19:00 -2°C° 0 mm 8 mps 729 mmHg 47%
20:00 -2°C° 0 mm 7 mps 731 mmHg 47%
21:00 -2°C° 0.1 mm 6 mps 731 mmHg 51%
22:00 -2°C° 0.1 mm 5 mps 732 mmHg 56%
23:00 -2°C° 0.1 mm 4 mps 732 mmHg 61%

23 January, Saturday

Time Temperature Precipitation Wind Pressure Humidity
00:00 -4°C° 0.1 mm 5 mps 733 mmHg 63%
01:00 -4°C° 0.1 mm 5 mps 733 mmHg 64%
02:00 -4°C° 0.1 mm 5 mps 734 mmHg 66%
03:00 -5°C° 0.1 mm 5 mps 734 mmHg 66%
04:00 -4°C° 0.1 mm 4 mps 734 mmHg 67%
05:00 -4°C° 0.1 mm 4 mps 734 mmHg 67%
06:00 -4°C° 0 mm 4 mps 735 mmHg 68%
07:00 -4°C° 0 mm 3 mps 735 mmHg 68%
08:00 -4°C° 0 mm 3 mps 736 mmHg 69%
09:00 -4°C° 0 mm 3 mps 736 mmHg 66%
10:00 -2°C° 0 mm 3 mps 736 mmHg 63%
11:00 -2°C° 0 mm 3 mps 736 mmHg 60%
12:00 -1°C° 0 mm 3 mps 736 mmHg 57%
13:00 -1°C° 0 mm 2 mps 735 mmHg 54%
14:00 +1°C° 0 mm 2 mps 735 mmHg 51%
15:00 -1°C° 0 mm 2 mps 736 mmHg 53%
16:00 +1°C° 0 mm 1 mps 736 mmHg 55%
17:00 +1°C° 0 mm 1 mps 737 mmHg 57%
18:00 +1°C° 0 mm 1 mps 737 mmHg 61%
19:00 0°C° 0 mm 1 mps 737 mmHg 64%
20:00 0°C° 0 mm 1 mps 737 mmHg 67%
21:00 -1°C° 0 mm 1 mps 737 mmHg 69%
22:00 -1°C° 0 mm 1 mps 737 mmHg 70%
23:00 -1°C° 0 mm 1 mps 737 mmHg 72%
Show more